TimeCDT,TemperatureF,Dew PointF,Humidity,Sea Level PressureIn,VisibilityMPH,Wind Direction,Wind SpeedMPH,Gust SpeedMPH,PrecipitationIn,Events,Conditions,WindDirDegrees,DateUTC
12:56 AM,18.0,12.9,81,30.37,10.0,North,11.5,-,N/A,,Clear,360,2013-03-13 05:56:00
1:56 AM,17.1,12.9,84,30.38,10.0,NNW,8.1,-,N/A,,Clear,330,2013-03-13 06:56:00
2:49 AM,17.6,12.2,79,30.32,10.0,NW,6.9,-,N/A,,Mostly Cloudy,320,2013-03-13 07:49:00
2:56 AM,16.0,12.9,88,30.40,10.0,NW,5.8,-,N/A,,Mostly Cloudy,310,2013-03-13 07:56:00
3:26 AM,17.6,14.0,86,30.33,10.0,NW,4.6,-,N/A,,Overcast,320,2013-03-13 08:26:00
3:56 AM,17.1,12.9,84,30.40,10.0,NW,6.9,-,N/A,,Overcast,320,2013-03-13 08:56:00
4:56 AM,17.1,12.9,84,30.40,10.0,NNW,5.8,-,N/A,,Mostly Cloudy,330,2013-03-13 09:56:00
5:05 AM,15.8,12.2,86,30.33,10.0,NNW,6.9,-,N/A,,Scattered Clouds,340,2013-03-13 10:05:00
5:56 AM,15.1,12.0,88,30.40,10.0,Calm,Calm,-,N/A,,Clear,0,2013-03-13 10:56:00
6:56 AM,12.9,10.9,92,30.42,10.0,Calm,Calm,-,N/A,,Clear,0,2013-03-13 11:56:00
7:56 AM,12.9,10.9,92,30.44,10.0,West,3.5,-,N/A,,Partly Cloudy,260,2013-03-13 12:56:00
8:56 AM,16.0,12.9,88,30.45,10.0,WNW,4.6,-,N/A,,Clear,290,2013-03-13 13:56:00
9:56 AM,19.9,15.1,81,30.44,10.0,Calm,Calm,-,N/A,,Partly Cloudy,0,2013-03-13 14:56:00
10:56 AM,23.0,16.0,74,30.44,10.0,Calm,Calm,-,N/A,,Clear,0,2013-03-13 15:56:00
11:56 AM,26.1,16.0,66,30.43,10.0,Variable,3.5,-,N/A,,Clear,0,2013-03-13 16:56:00
12:56 PM,30.0,14.0,51,30.42,10.0,South,3.5,-,N/A,,Clear,190,2013-03-13 17:56:00
1:56 PM,33.1,15.1,48,30.39,10.0,Variable,4.6,-,N/A,,Clear,0,2013-03-13 18:56:00
2:56 PM,34.0,18.0,52,30.36,10.0,SSE,3.5,-,N/A,,Clear,160,2013-03-13 19:56:00
3:56 PM,36.0,21.0,55,30.33,10.0,SSE,11.5,-,N/A,,Clear,160,2013-03-13 20:56:00
4:56 PM,37.0,21.9,54,30.31,10.0,South,12.7,-,N/A,,Clear,180,2013-03-13 21:56:00
5:56 PM,35.1,21.0,57,30.31,10.0,South,15.0,-,N/A,,Clear,170,2013-03-13 22:56:00
6:56 PM,33.1,19.9,59,30.30,10.0,South,12.7,-,N/A,,Clear,170,2013-03-13 23:56:00
7:56 PM,30.9,23.0,72,30.28,10.0,SSE,12.7,-,N/A,,Clear,150,2013-03-14 00:56:00
8:56 PM,30.0,23.0,75,30.27,10.0,SSE,13.8,18.4,N/A,,Partly Cloudy,160,2013-03-14 01:56:00
9:56 PM,28.9,21.9,75,30.25,10.0,SSE,11.5,-,N/A,,Clear,160,2013-03-14 02:56:00
10:56 PM,30.0,21.9,72,30.22,10.0,South,13.8,-,N/A,,Partly Cloudy,180,2013-03-14 03:56:00
11:56 PM,30.0,21.9,72,30.20,10.0,South,12.7,20.7,N/A,,Clear,180,2013-03-14 04:56:00